This demonstration page uses our WeatherBlox Daily Observations layout. Learn more.

Left ArrowRight Arrow

Hourly Observations for September 26, 2019

Temp ( °F °C ) Dew Point ( °F °C ) Humidity (%) Winds ( mph kmh ) Pressure ( in mb ) Visibility ( mi km ) Precip ( " mm )
12:15 am 00:15 Clear 61 16 55 13 83 83 Calm 29.89 1012 10 16 0.00 0.00
12:35 am 00:35 Clear 61 16 55 13 83 83 SSE 3 6 29.89 1012 10 16 0.00 0.00
12:55 am 00:55 Clear 59 15 54 12 82 82 Calm 29.88 1012 10 16 0.00 0.00
1:15 am 01:15 Clear 57 14 55 13 94 94 Calm 29.88 1012 10 16 0.00 0.00
1:35 am 01:35 Clear 59 15 55 13 88 88 Calm 29.88 1012 10 16 0.00 0.00
1:55 am 01:55 Clear 59 15 55 13 88 88 Calm 29.87 1011 10 16 0.00 0.00
2:15 am 02:15 Clear 57 14 55 13 94 94 Calm 29.87 1012 10 16 0.00 0.00
2:35 am 02:35 Clear 57 14 55 13 94 94 Calm 29.86 1011 10 16 0.00 0.00
2:55 am 02:55 Clear 55 13 55 13 100 100 Calm 29.85 1011 10 16 0.00 0.00
3:15 am 03:15 Clear 55 13 54 12 94 94 Calm 29.85 1011 10 16 0.00 0.00
3:35 am 03:35 Clear 55 13 54 12 94 94 Calm 29.85 1011 10 16 0.00 0.00
3:55 am 03:55 Clear 55 13 55 13 100 100 Calm 29.85 1011 10 16 0.00 0.00
4:15 am 04:15 Clear 57 14 55 13 94 94 Calm 29.84 1011 10 16 0.00 0.00
4:35 am 04:35 Clear 57 14 55 13 94 94 Calm 29.84 1011 10 16 0.00 0.00
4:55 am 04:55 Clear 57 14 55 13 94 94 Calm 29.83 1010 10 16 0.00 0.00
5:15 am 05:15 Clear 55 13 54 12 94 94 Calm 29.83 1010 10 16 0.00 0.00
5:35 am 05:35 Clear 54 12 54 12 100 100 NW 3 6 29.84 1011 10 16 0.00 0.00
5:55 am 05:55 Clear 54 12 54 12 100 100 Calm 29.84 1011 10 16 0.00 0.00
6:15 am 06:15 Clear 54 12 54 12 100 100 Calm 29.83 1010 10 16 0.00 0.00
6:35 am 06:35 Clear 55 13 54 12 94 94 Calm 29.83 1010 10 16 0.00 0.00
6:55 am 06:55 Clear 55 13 54 12 94 94 Calm 29.83 1010 10 16 0.00 0.00
7:15 am 07:15 Sunny 54 12 54 12 100 100 NW 3 6 29.83 1010 10 16 0.00 0.00
7:35 am 07:35 Sunny 55 13 55 13 100 100 Calm 29.84 1011 10 16 0.00 0.00
7:55 am 07:55 Sunny 55 13 55 13 100 100 Calm 29.84 1011 10 16 0.00 0.00
8:15 am 08:15 Sunny 59 15 55 13 88 88 Calm 29.86 1011 10 16 0.00 0.00
8:35 am 08:35 Sunny 61 16 57 14 88 88 Calm 29.85 1011 10 16 0.00 0.00
8:55 am 08:55 Sunny 63 17 57 14 83 83 Calm 29.84 1010 10 16 0.00 0.00
9:15 am 09:15 Sunny 64 18 57 14 78 78 SSE 3 6 29.83 1010 10 16 0.00 0.00
9:35 am 09:35 Sunny 68 20 59 15 73 73 SSE 3 6 29.83 1010 10 16 0.00 0.00
9:55 am 09:55 Sunny 70 21 59 15 69 69 Calm 29.84 1010 10 16 0.00 0.00
10:15 am 10:15 Sunny 72 22 59 15 65 65 S 3 6 29.83 1010 10 16 0.00 0.00
10:35 am 10:35 Sunny 73 23 59 15 61 61 SW 3 6 29.83 1010 10 16 0.00 0.00
10:55 am 10:55 Mostly Cloudy 73 23 61 16 65 65 Calm 29.82 1010 10 16 0.00 0.00
11:15 am 11:15 Partly Cloudy 75 24 61 16 61 61 Calm 29.82 1010 10 16 0.00 0.00
11:35 am 11:35 Mostly Cloudy 77 25 61 16 57 57 Calm 29.81 1010 10 16 0.00 0.00
11:55 am 11:55 Mostly Cloudy 79 26 61 16 54 54 SW 3 6 29.80 1009 10 16 0.00 0.00
12:15 pm 12:15 Partly Cloudy 79 26 63 17 58 58 Calm 29.79 1009 10 16 0.00 0.00
12:35 pm 12:35 Partly Cloudy 81 27 61 16 51 51 Calm 29.80 1009 10 16 0.00 0.00
12:55 pm 12:55 Mostly Cloudy 82 28 61 16 48 48 SW 6 9 29.79 1009 10 16 0.00 0.00
1:15 pm 13:15 Cloudy 82 28 61 16 48 48 Calm 29.79 1009 N/A 0.00 0.00
1:35 pm 13:35 Mostly Cloudy 84 29 61 16 45 45 SSW 5 7 29.79 1009 N/A 0.00 0.00
1:55 pm 13:55 Cloudy 86 30 59 15 40 40 W 5 7 29.78 1008 N/A 0.00 0.00
2:15 pm 14:15 Mostly Cloudy 86 30 59 15 40 40 NW 7 11 29.77 1008 N/A 0.00 0.00
2:35 pm 14:35 Mostly Cloudy 84 29 61 16 45 45 NW 10 17 29.77 1008 N/A 0.00 0.00
2:55 pm 14:55 Partly Cloudy 86 30 61 16 43 43 NNW 13 20 29.78 1008 N/A 0.00 0.00
3:15 pm 15:15 Partly Cloudy 82 28 63 17 51 51 NNW 9 15 29.78 1008 10 16 0.00 0.00
3:35 pm 15:35 Mostly Cloudy 81 27 63 17 54 54 NNW 8 13 29.78 1009 10 16 0.00 0.00
3:55 pm 15:55 Mostly Cloudy 81 27 63 17 54 54 NNW 8 13 29.79 1009 10 16 0.00 0.00
4:15 pm 16:15 Cloudy 81 27 63 17 54 54 NNW 13 20 29.79 1009 10 16 0.00 0.00
4:35 pm 16:35 Mostly Cloudy 82 28 63 17 51 51 NNW 13 20 29.80 1009 10 16 0.00 0.00
4:55 pm 16:55 Partly Cloudy 81 27 61 16 51 51 NW 13 20 29.80 1009 10 16 0.00 0.00
5:15 pm 17:15 Partly Cloudy 82 28 61 16 48 48 N 13 20 29.81 1009 10 16 0.00 0.00
5:35 pm 17:35 Partly Cloudy 81 27 61 16 51 51 N 13 20 29.81 1010 10 16 0.00 0.00
5:55 pm 17:55 Partly Cloudy 81 27 59 15 48 48 NNW 16 26 29.82 1010 10 16 0.00 0.00
6:15 pm 18:15 Partly Cloudy 81 27 61 16 51 51 NNW 12 19 29.83 1010 10 16 0.00 0.00
6:35 pm 18:35 Sunny 79 26 59 15 51 51 NNW 6 9 29.84 1011 10 16 0.00 0.00
6:55 pm 18:55 Sunny 77 25 55 13 47 47 WNW 3 6 29.85 1011 10 16 0.00 0.00
7:15 pm 19:15 Clear 73 23 55 13 53 53 NW 5 7 29.87 1011 10 16 0.00 0.00
7:35 pm 19:35 Clear 75 24 55 13 50 50 NW 3 6 29.87 1011 10 16 0.00 0.00
7:55 pm 19:55 Clear 70 21 55 13 60 60 NW 6 9 29.89 1012 10 16 0.00 0.00
8:15 pm 20:15 Clear 70 21 54 12 57 57 NW 7 11 29.89 1012 10 16 0.00 0.00
8:35 pm 20:35 Clear 72 22 54 12 53 53 NNW 3 6 29.91 1013 10 16 0.00 0.00
8:55 pm 20:55 Clear 70 21 54 12 57 57 Calm 29.92 1013 10 16 0.00 0.00
9:15 pm 21:15 Clear 70 21 55 13 60 60 Calm 29.92 1013 10 16 0.00 0.00
9:35 pm 21:35 Clear 70 21 54 12 57 57 Calm 29.94 1014 10 16 0.00 0.00
9:55 pm 21:55 Clear 68 20 54 12 60 60 N 5 7 29.94 1014 10 16 0.00 0.00
10:15 pm 22:15 Partly Cloudy 68 20 54 12 60 60 Calm 29.95 1014 10 16 0.00 0.00
10:35 pm 22:35 Partly Cloudy 64 18 55 13 73 73 Calm 29.96 1015 10 16 0.00 0.00
10:55 pm 22:55 Mostly Cloudy 63 17 55 13 77 77 NNW 3 6 29.98 1015 10 16 0.00 0.00
11:15 pm 23:15 Partly Cloudy 64 18 55 13 73 73 N 5 7 29.97 1015 10 16 0.00 0.00
11:35 pm 23:35 Clear 63 17 55 13 77 77 NNW 7 11 29.98 1015 10 16 0.00 0.00
11:55 pm 23:55 Clear 64 18 55 13 73 73 N 7 11 29.97 1015 10 16 0.00 0.00

Powered by AerisWeather